User: anonymous   Login
Location: Unspecified
(0.0000°N, 0.0000°E)
Time: 19:25:45
(UTC+00:00)
Language:

ISS - Orbit

View from above orbital plane
View from above orbital plane
View from above satellite
View from above satellite

Ground track
Ground track

The orbit data is extracted from the following two-line orbital elements,

1 25544U 98067A   20197.20621135  .00016717  00000-0  10270-3 0  9107
2 25544  51.6404 209.7954 0001474 129.1057 231.0225 15.49518533 36355
Epoch (UTC): 15 July 2020 04:56:56
Eccentricity: 0.0001474
inclination: 51.6404°
perigee height: 417 km
apogee height: 419 km
right ascension of ascending node: 209.7954°
argument of perigee: 129.1057°
revolutions per day: 15.49518533
mean anomaly at epoch: 231.0225°
orbit number at epoch: 3635

The dashed part of the orbit path shows where the satellite is in the earth's shadow,  

DLR